Terug naar catalogus

STARLINK-34863

ActiefCommunicatieVLEO
NORAD 66190·PAYLOAD·🇺🇸 United States

Gelanceerd Oct 26, 2025 vanaf Cape Canaveral Space Force Station

Loading…

Volgende Passages (komende 24 uur)

TLE

VersSource: CelesTrak SupGP

Epoch: Sep 14, 2026, 15:44 UTC

1 66190C 25243P   26257.65604167 -.00039427  00000+0 -11647-2 0  2579
2 66190  53.1583  85.3327 0001310  90.2441   6.3969 15.34414764    15

Volg STARLINK-34863 in realtime met AllMySat

Download on the App Store